FW1825 Weather Reports


time (UTC)temp
F
wind
direction
speed
knots
gust
knots
rain 1hr
in
rain 24hr
in
rain mn
in
humidity
%
barometer
mb
20260510072525 48 116 1.7 5.2 0.00 0.37 0.03 89 1007.7
20260510071801 48 129 2.6 5.2 0.00 0.37 0.03 89 1007.6
20260510071257 48 130 2.6 6.1 0.00 0.37 0.03 89 1007.5
20260510070755 48 153 3.5 6.1 0.00 0.37 0.03 89 1007.4
20260510070253 48 167 3.5 6.1 0.00 0.37 0.03 89 1007.5
20260510065753 48 163 3.5 6.1 0.00 0.37 0.03 89 1007.4
20260510065249 48 169 4.3 7.0 0.00 0.37 0.03 89 1007.4
20260510064745 48 141 4.3 7.0 0.00 0.37 0.03 89 1007.4
20260510064242 48 150 3.5 7.0 0.00 0.37 0.03 89 1007.2
20260510063741 48 166 1.7 6.1 0.00 0.37 0.03 89 1007.0
20260510063243 47 98 1.7 5.2 0.00 0.37 0.03 89 1006.9
20260510062739 48 69 1.7 5.2 0.00 0.37 0.03 89 1007.1
20260510062228 47 92 1.7 6.1 0.00 0.37 0.03 89 1007.1
20260510061727 47 81 1.7 6.1 0.00 0.37 0.03 89 1007.0
20260510061223 47 94 0.9 2.6 0.00 0.37 0.03 88 1007.0
20260510060719 48 94 0.9 2.6 0.00 0.37 0.03 89 1007.3
20260510060217 48 96 1.7 7.0 0.00 0.37 0.03 89 1007.5
20260510055709 49 153 3.5 8.7 0.00 0.37 0.03 89 1007.3
20260510055159 49 157 4.3 8.7 0.00 0.37 0.03 89 1007.5
20260510054657 49 119 4.3 10.4 0.00 0.37 0.03 89 1007.6
20260510054146 49 130 4.3 10.4 0.00 0.37 0.03 89 1007.5
20260510053642 49 148 4.3 8.7 0.00 0.37 0.03 89 1007.5
20260510053143 49 152 4.3 7.8 0.00 0.37 0.03 89 1007.5
20260510052640 49 173 3.5 7.8 0.00 0.37 0.03 89 1007.8
20260510052141 49 175 2.6 7.8 0.00 0.37 0.03 89 1007.7
20260510051636 49 144 2.6 7.0 0.01 0.37 0.03 89 1007.9
20260510051131 49 155 3.5 5.2 0.01 0.37 0.03 89 1007.9
20260510050627 49 135 2.6 5.2 0.02 0.37 0.03 89 1007.9
20260510050113 49 160 1.7 5.2 0.03 0.37 0.03 89 1007.9
20260510045831 49 161 2.6 8.7 0.04 0.37 0.03 89 1008.0
20260510045113 49 184 3.5 8.7 0.04 0.37 0.03 89 1008.0
20260510044609 49 159 3.5 7.0 0.04 0.37 0.03 89 1007.6
20260510044108 49 159 3.5 7.0 0.05 0.37 0.03 90 1007.6
20260510043607 49 127 1.7 6.1 0.05 0.37 0.03 90 1007.7
20260510043108 49 138 1.7 6.1 0.07 0.37 0.03 90 1007.8
20260510042608 49 126 2.6 6.1 0.08 0.37 0.03 90 1007.9
20260510042103 49 126 2.6 7.0 0.09 0.37 0.03 90 1007.8
20260510041557 49 144 3.5 7.0 0.09 0.36 0.02 90 1007.9
20260510041059 49 143 2.6 7.0 0.11 0.36 0.02 90 1007.9
20260510040554 49 132 1.7 5.2 0.12 0.35 0.01 90 1008.3
20260510040324 49 126 1.7 5.2 0.16 0.34 0.00 90 1008.3
20260510035820 49 169 1.7 5.2 0.15 0.33 0.34 89 1008.4
20260510035050 49 173 1.7 3.5 0.15 0.33 0.33 89 1008.4
20260510034550 49 183 0.9 3.5 0.15 0.33 0.33 89 1008.3
20260510034051 49 186 1.7 6.1 0.14 0.32 0.32 89 1008.3
20260510033809 49 235 4.3 7.8 0.14 0.32 0.32 89 1008.5
20260510033049 49 224 5.2 7.8 0.12 0.30 0.30 88 1008.9
20260510032545 49 245 7.0 10.4 0.11 0.29 0.29 88 1008.9
20260510032047 50 257 7.8 12.2 0.10 0.28 0.28 88 1008.7
20260510031545 50 288 8.7 13.0 0.09 0.27 0.27 87 1008.9
20260510031046 50 279 10.4 15.6 0.07 0.25 0.25 86 1008.9
20260510030546 51 298 13.9 23.5 0.05 0.23 0.23 85 1009.0
20260510030048 51 281 14.8 23.5 0.00 0.18 0.18 85 1008.7
20260510025545 52 270 9.6 23.5 0.00 0.18 0.18 85 1008.5
20260510025046 52 292 5.2 14.8 0.00 0.18 0.18 87 1008.4
20260510024805 52 179 2.6 7.0 0.00 0.18 0.18 87 1007.8
20260510024046 52 180 3.5 7.0 0.00 0.18 0.18 87 1007.4
20260510023540 52 115 4.3 8.7 0.00 0.18 0.18 87 1007.5
20260510023040 52 145 4.3 9.6 0.00 0.18 0.18 87 1007.5
20260510022538 52 187 5.2 9.6 0.00 0.18 0.18 87 1007.5
20260510022039 52 178 5.2 9.6 0.00 0.18 0.18 87 1007.3
20260510021538 52 116 5.2 9.6 0.00 0.18 0.18 87 1007.3
20260510021306 52 165 4.3 9.6 0.00 0.18 0.18 87 1007.4
20260510020537 52 118 5.2 8.7 0.00 0.18 0.18 87 1007.2
20260510020026 52 167 6.1 10.4 0.00 0.18 0.18 86 1007.4
20260510015525 52 159 6.1 12.2 0.00 0.18 0.18 86 1007.4
20260510015249 52 176 6.1 12.2 0.00 0.18 0.18 86 1007.3
20260510014526 52 163 7.0 14.8 0.00 0.18 0.18 86 1007.0
20260510014024 52 153 7.8 15.6 0.00 0.18 0.18 86 1006.6
20260510013744 52 186 7.0 15.6 0.00 0.18 0.18 86 1006.4
20260510013020 52 140 7.0 13.0 0.00 0.18 0.18 86 1006.2
20260510012745 52 169 7.0 13.0 0.00 0.18 0.18 86 1006.4
20260510012014 52 150 6.1 12.2 0.00 0.18 0.18 86 1006.3
20260510011739 52 157 5.2 9.6 0.00 0.18 0.18 86 1006.4
20260510011016 52 164 5.2 10.4 0.00 0.18 0.18 86 1006.6
20260510010515 52 145 5.2 10.4 0.00 0.18 0.18 86 1006.6
20260510010014 52 147 6.1 11.3 0.00 0.18 0.18 86 1006.4
20260510005511 52 168 6.1 12.2 0.00 0.18 0.18 86 1006.3
20260510005011 52 152 6.1 12.2 0.00 0.18 0.18 85 1006.1
20260510004511 53 140 6.1 12.2 0.00 0.18 0.18 85 1006.2
20260510004012 53 178 5.2 11.3 0.00 0.18 0.18 85 1006.1
20260510003734 53 155 6.1 11.3 0.00 0.18 0.18 85 1006.0
20260510003007 53 137 6.1 10.4 0.00 0.18 0.18 85 1005.8
20260510002507 53 180 5.2 10.4 0.00 0.18 0.18 85 1005.8
20260510002008 53 152 5.2 10.4 0.00 0.18 0.18 85 1005.8
20260510001506 53 161 5.2 11.3 0.00 0.18 0.18 84 1005.9
20260510001007 53 187 6.1 12.2 0.00 0.18 0.18 84 1006.1
20260510000507 53 136 6.1 13.0 0.00 0.18 0.18 84 1006.0
20260510000008 53 148 5.2 13.0 0.00 0.18 0.18 84 1006.1
20260509235508 53 180 5.2 11.3 0.00 0.18 0.18 83 1006.2
20260509235007 54 179 6.1 11.3 0.00 0.18 0.18 83 1006.0
20260509234508 54 148 5.2 11.3 0.00 0.18 0.18 83 1006.0
20260509234234 54 159 5.2 11.3 0.00 0.18 0.18 83 1005.8
20260509233504 54 173 5.2 11.3 0.00 0.18 0.18 83 1005.8
20260509233005 54 183 5.2 9.6 0.00 0.18 0.18 83 1005.7
20260509232505 54 171 6.1 10.4 0.00 0.18 0.18 83 1005.6
20260509232231 54 185 6.1 13.0 0.00 0.18 0.18 83 1005.7
20260509231503 54 168 6.1 13.0 0.00 0.18 0.18 82 1005.8
20260509231000 55 184 6.1 13.9 0.00 0.18 0.18 82 1006.1
20260509230500 55 182 6.1 13.9 0.00 0.18 0.18 82 1005.9
20260509225958 55 167 7.0 13.0 0.00 0.18 0.18 82 1005.9
20260509225457 55 169 7.8 13.0 0.00 0.18 0.18 82 1006.0
20260509224957 55 184 7.0 13.0 0.00 0.18 0.18 81 1006.0
20260509224716 56 154 6.1 13.0 0.00 0.18 0.18 81 1006.1
20260509224219 56 171 6.1 10.4 0.00 0.18 0.18 81 1006.2
20260509223719 56 181 6.1 10.4 0.00 0.18 0.18 81 1006.2
20260509222952 56 153 6.1 14.8 0.00 0.18 0.18 81 1006.1
20260509222453 56 142 6.1 14.8 0.00 0.18 0.18 81 1006.0
20260509221952 56 145 5.2 12.2 0.00 0.18 0.18 80 1006.2
20260509221453 56 153 4.3 9.6 0.00 0.18 0.18 81 1006.3
20260509220953 56 167 5.2 11.3 0.00 0.18 0.18 80 1006.1
20260509220454 56 182 5.2 11.3 0.00 0.18 0.18 81 1006.1
20260509215949 56 165 5.2 13.0 0.00 0.18 0.18 82 1006.1
20260509215449 55 180 6.1 13.0 0.00 0.18 0.18 83 1006.1
20260509215209 54 170 6.1 12.2 0.00 0.18 0.18 83 1006.1
20260509214449 54 132 5.2 11.3 0.00 0.18 0.18 82 1005.9
20260509213949 55 194 5.2 9.6 0.00 0.18 0.18 83 1006.0
20260509213449 55 183 5.2 9.6 0.00 0.18 0.18 83 1006.0
20260509212949 54 111 5.2 12.2 0.00 0.18 0.18 84 1006.0
20260509212448 54 180 5.2 12.2 0.00 0.18 0.18 83 1006.0
20260509211948 54 154 5.2 11.3 0.00 0.18 0.18 83 1006.0
20260509211449 53 160 5.2 13.0 0.00 0.18 0.18 83 1005.9
20260509210949 53 159 5.2 13.0 0.00 0.18 0.18 83 1006.1
20260509210449 54 148 6.1 10.4 0.00 0.18 0.18 83 1006.3
20260509205948 54 183 7.0 16.5 0.00 0.18 0.18 83 1006.3
20260509205449 54 181 7.0 16.5 0.00 0.18 0.18 83 1006.4
20260509204949 54 178 7.0 14.8 0.00 0.18 0.18 83 1006.3
20260509204449 54 180 7.0 15.6 0.00 0.18 0.18 83 1006.2
20260509203950 53 167 6.1 15.6 0.00 0.18 0.18 84 1006.3
20260509203449 53 182 5.2 10.4 0.00 0.18 0.18 84 1006.4
20260509202949 53 173 6.1 10.4 0.00 0.18 0.18 84 1006.6
20260509202448 53 150 6.1 10.4 0.00 0.18 0.18 83 1006.6
20260509201949 54 155 6.1 13.0 0.00 0.18 0.18 83 1006.6
20260509201449 54 176 6.1 14.8 0.00 0.18 0.18 83 1006.7
20260509200950 54 153 5.2 14.8 0.00 0.18 0.18 82 1006.9
20260509200450 54 187 6.1 11.3 0.00 0.18 0.18 84 1007.0
20260509195949 53 203 6.1 11.3 0.00 0.18 0.18 83 1007.0
20260509195710 53 163 6.1 13.0 0.00 0.18 0.18 83 1007.0
20260509194950 53 198 7.0 14.8 0.00 0.18 0.18 83 1007.2
20260509194450 53 171 7.0 14.8 0.00 0.18 0.18 83 1007.2
20260509193948 53 188 6.1 13.0 0.00 0.18 0.18 85 1007.2
20260509193448 53 190 5.2 12.2 0.00 0.18 0.18 85 1007.1
20260509192947 52 213 5.2 13.0 0.00 0.18 0.18 85 1007.1
20260509192446 52 171 5.2 13.0 0.00 0.18 0.18 85 1007.2
20260509191944 52 198 4.3 12.2 0.00 0.18 0.18 85 1007.4
20260509191444 52 170 5.2 9.6 0.00 0.18 0.18 85 1007.5
20260509190945 52 186 5.2 9.6 0.00 0.18 0.18 85 1007.4
20260509190447 52 172 5.2 11.3 0.00 0.18 0.18 85 1007.5
20260509185944 52 240 5.2 12.2 0.00 0.18 0.18 85 1007.5
20260509185439 52 167 5.2 12.2 0.00 0.18 0.18 85 1007.6
20260509185425 52 172 5.2 13.9 0.00 0.18 0.18 85 1007.6
20260509184439 52 180 6.1 13.9 0.00 0.18 0.18 85 1007.6
20260509183939 52 173 5.2 10.4 0.00 0.18 0.18 85 1007.6
20260509183436 52 178 5.2 10.4 0.00 0.18 0.18 85 1007.6
20260509182936 52 188 5.2 10.4 0.00 0.18 0.18 84 1007.6
20260509182659 52 174 5.2 13.0 0.00 0.18 0.18 85 1007.5
20260509181938 52 196 5.2 13.0 0.00 0.18 0.18 85 1007.6
20260509181436 52 207 5.2 10.4 0.00 0.18 0.18 85 1007.7
20260509181149 52 221 5.2 11.3 0.00 0.18 0.18 85 1007.7
20260509181033 52 206 4.3 11.3 0.00 0.18 0.18 85 1007.6
20260509175940 52 182 4.3 8.7 0.00 0.18 0.18 85 1007.7
20260509175435 52 164 4.3 7.8 0.00 0.18 0.18 86 1007.8
20260509174934 52 183 4.3 8.7 0.00 0.18 0.18 86 1007.7
20260509174430 52 167 5.2 12.2 0.00 0.18 0.18 86 1007.6
20260509173928 51 177 6.1 13.0 0.00 0.18 0.18 85 1007.6
20260509173429 51 186 6.1 13.0 0.00 0.18 0.18 85 1007.5
20260509172928 51 147 6.1 13.0 0.00 0.18 0.18 86 1007.4
20260509172428 51 144 7.0 13.0 0.00 0.18 0.18 85 1007.5
20260509172149 52 180 7.0 12.2 0.00 0.18 0.18 85 1007.6
20260509171427 52 182 7.0 13.9 0.00 0.18 0.18 86 1007.5
20260509170926 52 177 7.8 13.9 0.00 0.18 0.18 86 1007.6
20260509170428 51 181 7.8 15.6 0.00 0.18 0.18 86 1007.4
20260509165926 51 155 7.0 15.6 0.00 0.18 0.18 86 1007.6
20260509165426 51 146 6.1 14.8 0.00 0.18 0.18 86 1007.5
20260509164924 51 144 7.0 14.8 0.00 0.18 0.18 86 1007.6
20260509164426 51 184 7.0 20.0 0.00 0.18 0.18 87 1007.7
20260509163925 51 144 6.1 20.0 0.00 0.18 0.18 87 1007.6
20260509163419 51 179 5.2 13.9 0.00 0.18 0.18 88 1007.6
20260509163405 50 180 6.1 13.9 0.00 0.18 0.18 88 1007.7
20260509162417 50 165 6.1 12.2 0.00 0.18 0.18 88 1007.8
20260509162140 50 173 7.0 12.2 0.00 0.18 0.18 88 1007.7
20260509161412 50 172 6.1 12.2 0.00 0.18 0.18 88 1007.7
20260509160909 50 185 6.1 11.3 0.00 0.18 0.18 89 1007.8
20260509160406 50 163 6.1 10.4 0.00 0.18 0.18 89 1007.8
20260509155905 50 176 6.1 12.2 0.00 0.18 0.18 89 1007.7
20260509155406 49 167 6.1 12.2 0.00 0.18 0.18 89 1007.8
20260509154906 49 169 5.2 10.4 0.00 0.18 0.18 89 1007.7
20260509154407 49 142 5.2 12.2 0.00 0.18 0.18 89 1007.9
20260509153904 49 171 5.2 13.0 0.00 0.18 0.18 89 1007.9
20260509153400 49 157 5.2 13.0 0.00 0.18 0.18 89 1007.9
20260509152900 49 138 6.1 12.2 0.01 0.18 0.18 89 1007.8
20260509152359 49 111 6.1 12.2 0.01 0.18 0.18 89 1007.8
20260509151858 49 162 6.1 13.0 0.01 0.18 0.18 89 1008.0
20260509151357 49 154 7.0 13.0 0.01 0.18 0.18 89 1007.9
20260509150857 49 152 7.0 13.0 0.01 0.18 0.18 90 1007.9
20260509150355 49 147 7.0 13.0 0.02 0.18 0.18 90 1007.8
20260509145853 49 157 6.1 13.9 0.02 0.19 0.18 90 1007.9
20260509145617 49 113 6.1 13.9 0.02 0.19 0.18 90 1007.9
20260509145117 48 159 6.1 12.2 0.02 0.20 0.18 90 1007.8
20260509144353 48 159 7.0 12.2 0.03 0.20 0.18 90 1007.9
20260509143850 48 163 7.0 14.8 0.03 0.20 0.18 90 1008.0
20260509143350 48 165 7.0 14.8 0.03 0.20 0.18 90 1008.0
20260509142849 48 160 7.0 14.8 0.03 0.19 0.17 90 1007.9
20260509142350 48 146 7.0 14.8 0.03 0.19 0.17 90 1008.0
20260509141847 48 146 6.1 13.9 0.03 0.19 0.17 90 1008.1
20260509141347 48 153 5.2 13.9 0.03 0.20 0.17 90 1008.1
20260509141108 48 156 4.3 8.7 0.04 0.20 0.17 90 1008.3
20260509140345 48 148 3.5 7.8 0.03 0.19 0.16 90 1008.2
20260509135845 48 167 4.3 10.4 0.03 0.20 0.16 90 1008.4
20260509135604 47 175 4.3 10.4 0.04 0.20 0.16 90 1008.5
20260509134841 47 150 4.3 10.4 0.04 0.20 0.16 90 1008.4
20260509134343 47 118 4.3 10.4 0.03 0.19 0.15 90 1008.4
20260509133837 47 124 3.5 7.8 0.03 0.20 0.15 90 1008.3
20260509133337 47 118 3.5 7.8 0.03 0.20 0.15 90 1008.3
20260509132835 47 125 2.6 7.0 0.03 0.20 0.14 90 1008.4
20260509132335 47 124 2.6 6.1 0.04 0.21 0.14 90 1008.5
20260509131833 47 149 2.6 7.0 0.05 0.22 0.14 90 1008.6
20260509131602 47 154 3.5 7.0 0.05 0.22 0.14 90 1008.6
20260509130836 47 150 4.3 8.7 0.05 0.22 0.13 90 1008.7
20260509125830 47 142 4.3 7.8 0.06 0.24 0.13 90 1008.7
20260509125551 47 144 5.2 12.2 0.06 0.24 0.12 90 1008.6
20260509124831 47 165 5.2 12.2 0.07 0.24 0.12 90 1008.6
20260509124329 47 195 5.2 9.6 0.08 0.24 0.12 90 1008.7
20260509123828 47 148 4.3 9.6 0.09 0.24 0.12 90 1008.5
20260509123328 47 148 4.3 9.6 0.10 0.24 0.12 90 1008.6
20260509122828 47 163 3.5 9.6 0.09 0.23 0.11 89 1008.7
20260509122329 47 123 3.5 7.8 0.09 0.22 0.10 89 1008.9
20260509121825 46 157 3.5 7.8 0.08 0.21 0.09 89 1008.9
20260509121323 46 126 3.5 7.8 0.09 0.21 0.09 89 1008.9
20260509120820 46 169 3.5 6.1 0.08 0.20 0.08 89 1008.9
20260509120540 46 157 3.5 7.8 0.08 0.20 0.08 89 1009.0
20260509115817 46 111 4.3 7.8 0.07 0.19 0.07 89 1009.1
20260509115315 46 107 3.5 7.8 0.06 0.18 0.06 89 1009.2
20260509114815 46 159 3.5 7.8 0.05 0.17 0.05 89 1009.2
20260509114309 46 153 3.5 7.8 0.04 0.16 0.04 88 1009.2
20260509113805 46 155 2.6 6.1 0.03 0.15 0.04 88 1009.2
20260509113744 46 152 3.5 7.8 0.02 0.14 0.02 88 1009.2
20260509112804 46 131 2.6 7.8 0.01 0.13 0.02 88 1009.1
20260509112307 46 148 2.6 7.0 0.01 0.13 0.01 88 1009.1
20260509111805 46 124 3.5 7.0 0.01 0.13 0.01 88 1009.0
20260509111302 46 126 3.5 7.8 0.00 0.12 0.00 87 1009.1
20260509110801 46 134 4.3 9.6 0.00 0.12 0.00 87 1008.9
20260509110302 46 171 3.5 9.6 0.00 0.12 0.00 87 1008.9
20260509105800 46 125 4.3 8.7 0.00 0.12 0.00 87 1008.9
20260509105301 46 134 3.5 8.7 0.00 0.12 0.00 87 1008.7
20260509104758 46 127 4.3 8.7 0.00 0.12 0.00 87 1008.7
20260509104257 46 153 4.3 8.7 0.00 0.12 0.00 86 1008.7
20260509103758 46 158 4.3 7.8 0.00 0.12 0.00 86 1008.6
20260509103254 46 169 4.3 7.8 0.00 0.12 0.00 86 1008.5
20260509102750 46 146 4.3 8.7 0.00 0.12 0.00 86 1008.4
20260509102246 46 130 3.5 8.7 0.00 0.12 0.00 86 1008.5
20260509101747 46 117 3.5 7.0 0.00 0.12 0.00 86 1008.3
20260509101243 46 136 3.5 9.6 0.00 0.12 0.00 85 1008.4
20260509100746 46 130 4.3 9.6 0.00 0.12 0.00 85 1008.4
20260509100237 45 128 4.3 8.7 0.00 0.12 0.00 85 1008.4
20260509095738 45 126 4.3 10.4 0.00 0.12 0.00 85 1008.4
20260509095233 45 122 3.5 10.4 0.00 0.12 0.00 85 1008.4
20260509094730 45 128 3.5 7.0 0.00 0.12 0.00 85 1008.3
20260509094231 45 144 3.5 7.0 0.00 0.12 0.00 84 1008.2
20260509093731 44 150 2.6 7.0 0.00 0.12 0.00 84 1008.3
20260509093447 44 142 3.5 7.8 0.00 0.12 0.00 84 1008.5
20260509092729 44 120 3.5 7.8 0.00 0.12 0.00 84 1008.2
20260509092227 44 118 3.5 6.1 0.00 0.12 0.00 84 1008.3
20260509091725 44 112 3.5 7.0 0.00 0.12 0.00 84 1008.2
20260509091223 45 109 2.6 7.0 0.00 0.12 0.00 84 1008.3
20260509090719 45 117 2.6 7.8 0.00 0.12 0.00 84 1008.3
20260509090217 45 132 2.6 7.8 0.00 0.12 0.00 83 1008.4
20260509085939 46 123 2.6 7.0 0.00 0.12 0.00 83 1008.5
20260509085211 46 121 2.6 7.0 0.00 0.12 0.00 83 1008.6
20260509084713 46 122 2.6 5.2 0.00 0.12 0.00 83 1008.7
20260509084215 45 114 2.6 4.3 0.00 0.12 0.00 83 1008.7
20260509083933 45 128 1.7 4.3 0.00 0.12 0.00 83 1008.7
20260509083205 45 123 2.6 6.1 0.00 0.12 0.00 83 1008.6
20260509082659 45 117 2.6 6.1 0.00 0.12 0.00 83 1008.9
20260509082417 46 103 2.6 4.3 0.00 0.12 0.00 82 1008.9
20260509081916 46 141 2.6 6.1 0.00 0.12 0.00 82 1009.1
20260509081406 46 152 2.6 6.1 0.00 0.12 0.00 82 1009.1
20260509080643 46 153 2.6 6.1 0.00 0.12 0.00 82 1009.2
20260509080125 46 128 1.7 3.5 0.00 0.12 0.00 82 1009.2
20260509075612 46 127 1.7 6.1 0.00 0.12 0.00 82 1009.2
20260509075112 45 122 2.6 6.1 0.00 0.12 0.00 82 1009.2
20260509074834 45 134 3.5 7.0 0.00 0.12 0.00 81 1009.2
20260509074329 45 115 3.5 7.0 0.00 0.12 0.00 82 1009.1
20260509073603 45 111 3.5 6.1 0.00 0.12 0.00 81 1009.2
20260509073102 45 121 3.5 6.1 0.00 0.12 0.00 81 1009.1